#timestamp,LO_Frequency,Hit,StdDev 
1583518535.3,286047009.6,P
1583518555.1,286047010.8,P
1583518575.8,286047010.7,P
1583518595.7,286047008.9,Y
1583518615.5,286046996.8,P
1583518635.4,286046996.5,N
1583518655.2,286046999.2,N
1583518675.0,286046997.1,N
1583518675.9,286046997.1,N
1583518695.8,286046997.7,N
1583518715.6,286046996.6,N
1583518735.4,286046996.8,N
1583518755.3,286046997.7,N
1583518775.1,286046997.7,N
1583518795.9,286046996.5,N
1583518815.7,286046997.0,N
1583518835.5,286046997.1,N
1583518855.4,286046999.5,N
1583518875.2,286046996.9,N
1583518895.0,286046997.8,N
1583518896.0,286046997.8,N
1583518915.8,286046997.1,N
1583518935.6,286046997.8,N
1583518955.5,286046997.9,N
1583518975.3,286046997.4,N
1583518995.1,286046999.6,N
1583519015.9,286046996.5,N
1583519035.7,286046999.2,N
1583519055.6,286046998.8,N
1583519075.4,286046998.6,N
1583519095.2,286046998.6,N
1583519115.1,286046998.5,N
1583519116.0,286046998.5,N
1583519135.8,286047000.7,N
1583519155.6,286046998.7,N
1583519175.5,286046999.3,N
1583519195.3,286046998.6,N
1583519215.2,286046999.0,N
1583519235.9,286046998.3,N
1583519255.7,286046998.6,N
1583519275.6,286046998.4,N
1583519295.4,286046998.8,N
1583519315.2,286046999.2,N
1583519335.1,286046999.4,N
1583519336.0,286046999.4,N
1583519355.8,286046998.5,N
1583519375.7,286047001.1,N
1583519395.5,286047000.9,N
1583519415.3,286046998.2,N
1583519435.2,286047001.1,N
1583519455.0,286046998.5,N
1583519455.9,286046998.5,N
1583519475.7,286046998.1,N
1583519495.6,286047001.2,N
1583519515.4,286047001.2,N
1583519535.3,286047000.3,N
1583519555.1,286047000.4,N
1583519556.0,286047000.4,N
1583519575.8,286047002.0,N
1583519595.7,286047002.6,N
1583519615.5,286047004.3,Y
1583519635.3,286047003.5,P
1583519655.2,286047003.4,N
1583519675.0,286047004.2,N
1583519675.9,286047004.2,N
1583519695.8,286047003.7,N
1583519715.6,286047003.8,N
1583519735.4,286047001.5,N
1583519755.3,286047001.3,N
1583519775.1,286047001.4,N
1583519795.8,286047003.1,N
1583519815.7,286047003.2,N
1583519835.5,286047004.2,Y
1583519855.4,286047000.3,P
1583519875.2,286046998.1,N
1583519895.0,286046998.1,N
1583519895.9,286046998.1,N
1583519915.8,286047000.9,N
1583519935.6,286047000.0,N
1583519955.5,286047002.5,N
1583519975.3,286047001.6,N
1583519995.1,286047001.4,N
1583520015.9,286047001.3,N
1583520035.7,286047002.6,N
1583520055.6,286047002.5,N
1583520075.4,286047002.4,N
1583520095.2,286047000.2,N
1583520115.1,286047002.7,N
1583520116.0,286047002.7,N
1583520135.8,286047002.1,N
1583520155.6,286047002.1,N
1583520175.5,286047001.5,N
1583520195.3,286047002.3,N
1583520215.2,286047001.9,N
1583520235.9,286047002.4,N
1583520255.7,286046999.7,N
1583520275.6,286046999.9,N
1583520295.4,286046999.8,N
1583520315.2,286047002.8,N
1583520335.1,286047002.4,N
1583520336.0,286047002.4,N
1583520355.8,286047002.1,N
1583520375.7,286047001.5,N
1583520395.5,286047002.3,N
1583520415.3,286047002.2,N
1583520465.2,286047001.7,E
1583520475.1,286047002.1,N
1583520495.9,286047000.1,P
1583520515.7,286047002.4,N
1583520535.5,286047002.7,N
1583520555.4,286046999.9,N
1583520575.2,286047000.2,N
1583520595.1,286047000.5,N
1583520596.0,286047000.5,N
1583520615.8,286047002.2,N
1583520635.6,286047002.7,N
1583520655.5,286047002.0,N
1583520675.3,286047002.3,N
1583520695.1,286047004.3,Y
1583520715.9,286047004.4,P
1583520735.7,286047000.4,N
1583520755.6,286047000.5,N
1583520775.4,286047002.8,N
1583520795.2,286046999.9,N
1583520815.1,286047001.0,N
1583520816.0,286047001.0,N
1583520835.8,286047000.0,N
1583520855.6,286046999.8,N
1583520875.5,286046999.9,N
1583520895.3,286046999.7,N
1583520915.2,286047002.7,N
1583520935.9,286047002.8,N
1583520955.7,286047000.9,N
1583520975.6,286047001.2,N
1583520995.4,286047000.5,N
1583521015.2,286046999.0,N
1583521035.1,286046998.5,N
1583521036.0,286046998.5,N
1583521055.8,286047000.9,N
1583521075.7,286047000.7,N
1583521095.5,286047001.1,N
1583521115.3,286046998.4,N
1583521135.2,286046998.5,N
1583521155.0,286047001.0,N
1583521155.9,286047001.0,N
1583521175.7,286046998.6,N
1583521195.6,286046998.4,N
